Tracking 19286 objects as of 19-Nov-2018
HD Live streaming from Space Station
objects crossing your sky now

NAVSTAR 17 (USA 49)

Track NAVSTAR 17 (USA 49) now!
NAVSTAR 17 (USA 49) is classified as:


NORAD ID: 20361
Int'l Code: 1989-097A
Perigee: 21,184.8 km
Apogee: 21,305.1 km
Inclination: 54.4 °
Period: 761.2 minutes
Semi major axis: 27615 km
RCS: 2.5118 m2 (large)
Launch date: December 11, 1989
Source: United States (US)
Launch site: AIR FORCE EASTERN TEST RANGE (AFETR)
aabbcc
Your satellite tracking list
Your tracking list is empty




NASA's NSSDC Master Catalog

Two Line Element Set (TLE):
1 20361U 89097A   18322.91378260 +.00000048 +00000-0 +00000-0 0  9999
2 20361 054.4113 108.3792 0021778 277.6029 168.9336 01.89174458197000
Source of the keplerian elements: AFSPC